Regional Weather Roundup
Issued by NWS

Home | Current Version | Previous Version | Graphics & Text | Print | Product List | Glossary On
Versions: 1 2 3 4 5 6 7 8 9 10 11 12 13 14 15 16 17 18 19 20 21 22 23 24 25 26 27 28 29 30 31 32 33 34 35 36 37 38 39 40 41 42 43 44 45 46 47 48 49 50
000
ASUS43 KOAX 100210
RWRNE

WEATHER ROUNDUP FOR NEBRASKA
NATIONAL WEATHER SERVICE OMAHA NE
800 PM CST FRI DEC 09 2016

NOTES: SATELLITE DATA IS BEING USED TO AUGMENT CLOUD COVER ABOVE
       12000 FEET.
       "FAIR" INDICATES FEW OR NO CLOUDS BELOW 12,000 FEET WITH NO
       SIGNIFICANT WEATHER AND/OR OBSTRUCTIONS TO VISIBILITY.

  * THESE STATIONS DO NOT REPORT WEATHER SUCH AS RAIN...SNOW OR FOG.

NEZ001>004-019>022-054>056-100300-
NEBRASKA PANHANDLE

CITY           SKY/WX    TMP DP  RH WIND       PRES   REMARKS
SCOTTSBLUFF    CLOUDY    15   5  64 SE7       30.20S WCI   5
ALLIANCE       CLOUDY     8   2  76 NE8       30.23R WCI  -4
CHADRON        CLOUDY     4  -2  76 NE7       30.31F WCI  -8
KIMBALL        CLOUDY    19  15  84 E6        30.14F WCI  11
SIDNEY         CLOUDY    19  11  70 E7        30.18F WCI  10
$$

NEZ057>060-069>072-079>082-100300-
SOUTHWEST NEBRASKA

CITY           SKY/WX    TMP DP  RH WIND       PRES   REMARKS
NORTH PLATTE   CLOUDY    14   9  80 E6        30.29F WCI   5
IMPERIAL       CLOUDY    19  14  81 E7        30.25R WCI  10
LEXINGTON      CLOUDY    18  12  76 SE7       30.34S WCI   9
MCCOOK         CLOUDY    19  12  74 E8        30.30R WCI   9
OGALLALA       CLOUDY    18  13  82 CALM      30.25R
$$

NEZ005>010-023>029-035>040-094-100300-
NORTH CENTRAL NEBRASKA

CITY           SKY/WX    TMP DP  RH WIND       PRES   REMARKS
VALENTINE      CLOUDY     8   2  76 NE9       30.38R WCI  -5
AINSWORTH      CLOUDY    10   8  93 N8        30.36S WCI  -2
BROKEN BOW     CLOUDY    13   9  84 CALM      30.33S
O`NEILL        CLOUDY    12  10  92 NE6       30.41S WCI   3
THEDFORD       CLOUDY    12   8  83 N3        30.29S
$$

NEZ041-046>049-061>064-073>077-083>087-100300-
SOUTH CENTRAL NEBRASKA

CITY           SKY/WX    TMP DP  RH WIND       PRES   REMARKS
GRAND ISLAND   CLOUDY    21  13  71 SE9       30.41F WCI  11
AURORA         CLOUDY    22  13  67 S5        30.42F WCI  16
HASTINGS       CLOUDY    18  11  74 SE7       30.41F WCI   9
HEBRON         CLOUDY    24  15  68 SE6       30.45F WCI  17
HOLDREGE       CLOUDY    14   9  81 E7        30.36R WCI   4
KEARNEY *      CLOUDY    12   7  79 SE7       30.38F WCI   2
YORK           CLOUDY    23  14  68 CALM      30.45S
$$

NEZ011>018-030>034-042>045-100300-
NORTHEAST NEBRASKA

CITY           SKY/WX    TMP DP  RH WIND       PRES   REMARKS
NORFOLK        CLOUDY    17  10  74 SE7       30.44F WCI   8
ALBION         CLOUDY    20  12  69 SE7       30.42F WCI  11
BLAIR          CLOUDY    21  13  70 CALM      30.49S
FREMONT        CLOUDY    21  12  69 CALM      30.50S
TEKAMAH        CLOUDY    20  10  65 CALM      30.52S
WAYNE          CLOUDY    18  11  75 S3        30.48F
$$

NEZ050>053-065>068-078-088>093-100300-
SOUTHEAST NEBRASKA

CITY           SKY/WX    TMP DP  RH WIND       PRES   REMARKS
LINCOLN        CLOUDY    23  14  68 SE6       30.50F WCI  16
OMAHA EPPLEY   CLOUDY    22  11  62 SE10      30.53R WCI  11
BEATRICE       CLOUDY    25  13  62 SE6       30.48S WCI  18
FALLS CITY     CLOUDY    25  14  63 SE5       30.52R WCI  19
NEBRASKA CITY  CLOUDY    23  10  59 CALM      30.51S
PLATTSMOUTH    CLOUDY    22  10  60 SE6       30.51S WCI  15
$$

NEZ044-045-051>053-067-100300-
OMAHA AREA

CITY           SKY/WX    TMP DP  RH WIND       PRES   REMARKS
OMAHA EPPLEY   CLOUDY    22  11  62 SE10      30.53R WCI  11
BLAIR          CLOUDY    21  13  70 CALM      30.49S
FREMONT        CLOUDY    21  12  69 CALM      30.50S
MILLARD        CLOUDY    24  14  65 SE7       30.51F WCI  16
OFFUTT AFB     CLOUDY    22  14  70 SE6       30.52S WCI  14
PLATTSMOUTH    CLOUDY    22  10  60 SE6       30.51S WCI  15
WAHOO          CLOUDY    22  13  69 SE6       30.49F WCI  14
$$




USA.gov is the U.S. government's official web portal to all federal, state and local government web resources and services.